H1 CPF 2 NER 2020 11 9 9 314 01 glonass120 H2 1000703 9120 36402 2020 11 9 0 0 0 2020 11 12 23 45 0 900 1 1 0 0 0 1 H9 10 0 59162 0.00000 0 -23073870.644 6907785.291 -8391074.692 10 0 59162 900.00000 0 -21901345.678 6521232.900 -11330121.829 10 0 59162 1800.00000 0 -20465524.798 5864434.810 -14049026.996 10 0 59162 2700.00000 0 -18825109.257 4916607.379 -16495000.319 10 0 59162 3600.00000 0 -17043807.698 3669417.745 -18620570.297 10 0 59162 4500.00000 0 -15187690.584 2127590.985 -20384502.352 10 0 59162 5400.00000 0 -13322466.659 308967.207 -21752594.738 10 0 59162 6300.00000 0 -11510795.375 -1755994.817 -22698336.949 10 0 59162 7200.00000 0 -9809747.381 -4025247.361 -23203418.522 10 0 59162 8100.00000 0 -8268518.574 -6446674.679 -23258079.088 10 0 59162 9000.00000 0 -6926492.312 -8960042.647 -22861293.511 10 0 59162 9900.00000 0 -5811729.761 -11499296.776 -22020788.933 10 0 59162 10800.00000 0 -4939950.299 -13995113.945 -20752893.665 10 0 59162 11700.00000 0 -4314043.464 -16377602.640 -19082220.802 10 0 59162 12600.00000 0 -3924131.861 -18579040.158 -17041192.475 10 0 59162 13500.00000 0 -3748181.427 -20536533.624 -14669413.582 10 0 59162 14400.00000 0 -3753132.652 -22194494.639 -12012906.585 10 0 59162 15300.00000 0 -3896504.591 -23506824.807 -9123221.747 10 0 59162 16200.00000 0 -4128403.640 -24438721.250 -6056439.621 10 0 59162 17100.00000 0 -4393851.961 -24968026.928 -2872084.738 10 0 59162 18000.00000 0 -4635336.950 -25086069.309 368028.475 10 0 59162 18900.00000 0 -4795473.632 -24797952.402 3600995.188 10 0 59162 19800.00000 0 -4819667.034 -24122289.900 6764041.677 10 0 59162 20700.00000 0 -4658661.433 -23090390.754 9795744.783 10 0 59162 21600.00000 0 -4270868.110 -21744931.433 12637225.438 10 0 59162 22500.00000 0 -3624372.490 -20138170.616 15233292.847 10 0 59162 23400.00000 0 -2698535.081 -18329781.188 17533516.823 10 0 59162 24300.00000 0 -1485117.619 -16384390.459 19493207.477 10 0 59162 25200.00000 0 11114.109 -14368931.831 21074283.374 10 0 59162 26100.00000 0 1772337.392 -12349918.448 22246011.358 10 0 59162 27000.00000 0 3768173.236 -10390752.718 22985603.972 10 0 59162 27900.00000 0 5956721.007 -8549183.828 23278663.069 10 0 59162 28800.00000 0 8286085.136 -6875019.097 23119461.141 10 0 59162 29700.00000 0 10696331.449 -5408184.263 22511054.968 10 0 59162 30600.00000 0 13121792.715 -4177213.148 21465229.201 10 0 59162 31500.00000 0 15493628.134 -3198229.263 20002270.778 10 0 59162 32400.00000 0 17742530.858 -2474461.256 18150578.084 10 0 59162 33300.00000 0 19801471.118 -1996311.777 15946112.015 10 0 59162 34200.00000 0 21608360.683 -1741976.167 13431699.141 10 0 59162 35100.00000 0 23108527.453 -1678584.151 10656200.130 10 0 59162 36000.00000 0 24256896.654 -1763815.650 7673559.332 10 0 59162 36900.00000 0 25019787.112 -1947921.740 4541754.038 10 0 59162 37800.00000 0 25376247.240 -2176064.505 1321664.025 10 0 59162 38700.00000 0 25318874.620 -2390875.942 -1924116.263 10 0 59162 39600.00000 0 24854084.847 -2535126.720 -5132499.136 10 0 59162 40500.00000 0 24001818.565 -2554390.923 -8241134.287 10 0 59162 41400.00000 0 22794699.413 -2399593.091 -11189624.140 10 0 59162 42300.00000 0 21276678.734 -2029328.994 -13920699.593 10 0 59162 43200.00000 0 19501224.518 -1411861.296 -16381333.055 10 0 59162 44100.00000 0 17529131.040 -526705.139 -18523767.025 10 0 59162 45000.00000 0 15426041.458 634263.810 -20306438.326 10 0 59162 45900.00000 0 13259787.266 2066226.098 -21694780.499 10 0 59162 46800.00000 0 11097655.810 3751385.187 -22661889.344 10 0 59162 47700.00000 0 9003699.749 5659486.164 -23189039.393 10 0 59162 48600.00000 0 7036200.124 7748865.515 -23266041.983 10 0 59162 49500.00000 0 5245387.985 9967988.973 -22891438.662 10 0 59162 50400.00000 0 3671518.570 12257414.089 -22072526.563 10 0 59162 51300.00000 0 2343377.139 14552096.643 -20825215.566 10 0 59162 52200.00000 0 1277277.541 16783945.724 -19173719.937 10 0 59162 53100.00000 0 476594.145 18884521.768 -17150090.279 10 0 59162 54000.00000 0 -68154.493 20787765.904 -14793594.402 10 0 59162 54900.00000 0 -378674.793 22432647.328 -12149958.631 10 0 59162 55800.00000 0 -487747.497 23765618.615 -9270483.776 10 0 59162 56700.00000 0 -437606.348 24742776.616 -6211052.432 10 0 59162 57600.00000 0 -277915.059 25331638.659 -3031046.520 10 0 59162 58500.00000 0 -63428.376 25512459.630 207804.036 10 0 59162 59400.00000 0 148563.487 25279034.559 3442619.165 10 0 59162 60300.00000 0 300898.532 24638952.962 6610589.666 10 0 59162 61200.00000 0 339201.698 23613294.047 9650197.374 10 0 59162 62100.00000 0 214425.630 22235775.359 12502410.511 10 0 59162 63000.00000 0 -114834.550 20551390.436 15111830.817 10 0 59162 63900.00000 0 -680350.921 18614592.369 17427769.888 10 0 59162 64800.00000 0 -1502681.803 16487099.209 19405233.853 10 0 59162 65700.00000 0 -2590067.715 14235412.895 21005797.353 10 0 59162 66600.00000 0 -3937851.813 11928155.219 22198349.964 10 0 59162 67500.00000 0 -5528450.321 9633331.842 22959700.850 10 0 59162 68400.00000 0 -7331875.527 7415638.017 23275030.105 10 0 59162 69300.00000 0 -9306790.667 5333918.090 23138178.176 10 0 59162 70200.00000 0 -11402053.881 3438884.090 22551767.823 10 0 59162 71100.00000 0 -13558687.908 1771187.926 21527156.101 10 0 59162 72000.00000 0 -15712194.204 359926.974 20084217.071 10 0 59162 72900.00000 0 -17795115.666 -778355.327 18250959.040 10 0 59162 73800.00000 0 -19739741.519 -1640132.895 16062983.298 10 0 59162 74700.00000 0 -21480841.554 -2234805.866 13562794.404 10 0 59162 75600.00000 0 -22958315.457 -2584059.652 10798975.032 10 0 59162 76500.00000 0 -24119646.190 -2720702.088 7825241.112 10 0 59162 77400.00000 0 -24922054.294 -2687028.609 4699395.682 10 0 59162 78300.00000 0 -25334262.438 -2532785.469 1482201.910 10 0 59162 79200.00000 0 -25337795.816 -2312818.039 -1763802.389 10 0 59162 80100.00000 0 -24927763.509 -2084504.690 -4975525.083 10 0 59162 81000.00000 0 -24113087.898 -1905085.805 -8090550.505 10 0 59162 81900.00000 0 -22916172.526 -1829001.942 -11048356.148 10 0 59162 82800.00000 0 -21372022.562 -1905354.578 -13791490.985 10 0 59162 83700.00000 0 -19526855.084 -2175597.577 -16266692.143 10 0 59162 84600.00000 0 -17436257.753 -2671557.557 -18425918.186 10 0 59162 85500.00000 0 -15162973.326 -3413867.193 -20227278.932 10 0 59163 0.00000 0 -12774402.835 -4410877.887 -21635844.248 10 0 59163 900.00000 0 -10339931.575 -5658098.487 -22624316.759 10 0 59163 1800.00000 0 -7928189.289 -7138182.832 -23173555.854 10 0 59163 2700.00000 0 -5604358.435 -8821469.256 -23272943.858 10 0 59163 3600.00000 0 -3427641.157 -10667048.161 -22920587.757 10 0 59163 4500.00000 0 -1448990.146 -12624314.994 -22123352.959 10 0 59163 5400.00000 0 290803.725 -14634944.072 -20896728.801 10 0 59163 6300.00000 0 1762588.530 -16635201.847 -19264528.324 10 0 59163 7200.00000 0 2949832.861 -18558503.753 -17258427.967 10 0 59163 8100.00000 0 3849072.168 -20338108.627 -14917355.680 10 0 59163 9000.00000 0 4469802.453 -21909838.727 -12286738.816 10 0 59163 9900.00000 0 4833826.792 -23214711.998 -9417625.888 10 0 59163 10800.00000 0 4974083.119 -24201376.671 -6365698.763 10 0 59163 11700.00000 0 4933003.408 -24828246.247 -3190194.089 10 0 59163 12600.00000 0 4760474.044 -25065245.223 47245.228 10 0 59163 13500.00000 0 4511484.074 -24895092.029 3283766.225 10 0 59163 14400.00000 0 4243561.219 -24314064.992 6456526.413 10 0 59163 15300.00000 0 4014104.483 -23332218.663 9503914.611 10 0 59163 16200.00000 0 3877726.749 -21973041.185 12366748.152 10 0 59163 17100.00000 0 3883720.147 -20272566.472 14989422.963 10 0 59163 18000.00000 0 4073751.838 -18277977.973 17320993.885 10 0 59163 18900.00000 0 4479888.243 -16045762.204 19316164.302 10 0 59163 19800.00000 0 5123031.741 -13639488.834 20936165.941 10 0 59163 20700.00000 0 6011836.501 -11127309.736 22149511.865 10 0 59163 21600.00000 0 7142150.000 -8579280.868 22932608.335 10 0 59163 22500.00000 0 8497004.726 -6064618.134 23270213.878 10 0 59163 23400.00000 0 10047161.492 -3649001.061 23155736.803 10 0 59163 24300.00000 0 11752182.735 -1392035.966 22591365.487 10 0 59163 25200.00000 0 13561991.954 655016.468 21588028.759 10 0 59163 26100.00000 0 15418854.995 2451155.169 20165186.929 10 0 59163 27000.00000 0 17259701.108 3967115.213 18350457.113 10 0 59163 27900.00000 0 19018687.295 5186346.147 16179079.644 10 0 59163 28800.00000 0 20629898.885 6105451.998 13693235.485 10 0 59163 29700.00000 0 22030073.336 6734075.511 10941227.476 10 0 59163 30600.00000 0 23161232.931 7094232.505 7976541.050 10 0 59163 31500.00000 0 23973115.507 7219125.298 4856802.664 10 0 59163 32400.00000 0 24425300.711 7151486.363 1642656.354 10 0 59163 33300.00000 0 24488941.911 6941523.165 -1603419.394 10 0 59163 34200.00000 0 24148030.447 6644552.131 -4818330.790 10 0 59163 35100.00000 0 23400138.693 6318422.862 -7939599.585 10 0 59163 36000.00000 0 22256610.400 6020842.557 -10906581.050 10 0 59163 36900.00000 0 20742190.236 5806714.701 -13661644.759 10 0 59163 37800.00000 0 18894108.044 5725605.310 -16151294.877 10 0 59163 38700.00000 0 16760656.281 5819444.385 -18327208.083 10 0 59163 39600.00000 0 14399320.301 6120560.055 -20147169.017 10 0 59163 40500.00000 0 11874539.699 6650128.618 -21575885.478 10 0 59163 41400.00000 0 9255193.971 7417106.030 -22585668.184 10 0 59163 42300.00000 0 6611917.134 8417686.007 -23156962.485 10 0 59163 43200.00000 0 4014352.534 9635307.812 -23278722.530 10 0 59163 44100.00000 0 1528461.289 11041213.824 -22948621.212 10 0 59163 45000.00000 0 -786004.583 12595534.004 -22173092.308 10 0 59163 45900.00000 0 -2877760.473 14248852.500 -20967204.275 10 0 59163 46800.00000 0 -4705886.236 15944191.540 -19354368.126 10 0 59163 47700.00000 0 -6241284.270 17619330.318 -17365884.881 10 0 59163 48600.00000 0 -7467639.164 19209362.505 -15040340.947 10 0 59163 49500.00000 0 -8381840.151 20649385.942 -12422862.626 10 0 59163 50400.00000 0 -8993849.774 21877212.231 -9564243.735 10 0 59163 51300.00000 0 -9326025.403 22835982.874 -6519962.750 10 0 59163 52200.00000 0 -9411923.000 23476582.255 -3349108.187 10 0 59163 53100.00000 0 -9294634.269 23759745.930 -113232.947 10 0 59163 54000.00000 0 -9024727.998 23657775.354 3124840.151 10 0 59163 54900.00000 0 -8657883.060 23155786.454 6302238.361 10 0 59163 55800.00000 0 -8252313.610 22252439.018 9357260.480 10 0 59163 56700.00000 0 -7866095.781 20960115.628 12230575.845 10 0 59163 57600.00000 0 -7554509.302 19304541.890 14866377.295 10 0 59163 58500.00000 0 -7367506.833 17323863.308 17213465.478 10 0 59163 59400.00000 0 -7347418.318 15067216.727 19226243.397 10 0 59163 60300.00000 0 -7526987.717 12592855.464 20865601.985 10 0 59163 61200.00000 0 -7927825.450 9965905.954 22099679.651 10 0 59163 62100.00000 0 -8559342.274 7255848.767 22904481.298 10 0 59163 63000.00000 0 -9418210.181 4533828.296 23264345.067 10 0 59163 63900.00000 0 -10488373.718 1869902.566 23172247.891 10 0 59163 64800.00000 0 -11741612.133 -669653.153 22629944.045 10 0 59163 65700.00000 0 -13138629.664 -3024877.467 21647933.871 10 0 59163 66600.00000 0 -14630629.061 -5144384.039 20245263.094 10 0 59163 67500.00000 0 -16161303.177 -6987259.482 18449156.215 10 0 59163 68400.00000 0 -17669161.698 -8524519.635 16294490.611 10 0 59163 69300.00000 0 -19090095.817 -9740064.196 13823121.119 10 0 59163 70200.00000 0 -20360073.338 -10631090.703 11083067.778 10 0 59163 71100.00000 0 -21417850.947 -11207951.488 8127582.190 10 0 59163 72000.00000 0 -22207589.296 -11493460.541 5014110.669 10 0 59163 72900.00000 0 -22681260.399 -11521680.582 1803174.408 10 0 59163 73800.00000 0 -22800745.437 -11336242.562 -1442811.172 10 0 59163 74700.00000 0 -22539533.992 -10988269.596 -4660754.326 10 0 59163 75600.00000 0 -21883952.558 -10533994.204 -7788117.820 10 0 59163 76500.00000 0 -20833870.129 -10032170.591 -10764138.129 10 0 59163 77400.00000 0 -19402850.747 -9541392.289 -13531008.636 10 0 59163 78300.00000 0 -17617746.338 -9117429.338 -16035003.459 10 0 59163 79200.00000 0 -15517746.694 -8810698.066 -18227519.949 10 0 59163 80100.00000 0 -13152926.262 -8663970.659 -20066019.636 10 0 59163 81000.00000 0 -10582348.357 -8710421.324 -21514849.771 10 0 59163 81900.00000 0 -7871805.632 -8972091.407 -22545930.091 10 0 59163 82800.00000 0 -5091290.680 -9458838.053 -23139292.144 10 0 59163 83700.00000 0 -2312301.486 -10167810.578 -23283461.460 10 0 59163 84600.00000 0 394907.040 -11083476.632 -22975675.801 10 0 59163 85500.00000 0 2964012.049 -12178197.185 -22221935.715 10 0 59164 0.00000 0 5335141.676 -13413326.541 -21036886.755 10 0 59164 900.00000 0 7457120.336 -14740791.885 -19443535.397 10 0 59164 1800.00000 0 9289348.619 -16105086.193 -17472804.541 10 0 59164 2700.00000 0 10803239.748 -17445592.136 -15162936.060 10 0 59164 3600.00000 0 11983155.386 -18699139.553 -12558752.060 10 0 59164 4500.00000 0 12826801.593 -19802689.764 -9710788.386 10 0 59164 5400.00000 0 13345070.043 -20696034.170 -6674316.807 10 0 59164 6300.00000 0 13561331.976 -21324393.841 -3508274.401 10 0 59164 7200.00000 0 13510215.368 -21640810.547 -274120.854 10 0 59164 8100.00000 0 13235917.591 -21608228.327 2965354.215 10 0 59164 9000.00000 0 12790125.279 -21201177.412 6147250.621 10 0 59164 9900.00000 0 12229629.800 -20406988.999 9209779.645 10 0 59164 10800.00000 0 11613739.515 -19226489.024 12093464.790 10 0 59164 11700.00000 0 11001598.515 -17674140.904 14742297.637 10 0 59164 12600.00000 0 10449525.371 -15777630.322 17104826.084 10 0 59164 13500.00000 0 10008484.607 -13576908.563 19135153.795 10 0 59164 14400.00000 0 9721797.941 -11122733.675 20793831.597 10 0 59164 15300.00000 0 9623191.964 -8474769.482 22048623.562 10 0 59164 16200.00000 0 9735264.809 -5699320.940 22875133.223 10 0 59164 17100.00000 0 10068436.716 -2866799.362 23257278.006 10 0 59164 18000.00000 0 10620429.002 -49022.256 23187602.850 10 0 59164 18900.00000 0 11376293.861 2683540.693 22667427.041 10 0 59164 19800.00000 0 12308994.300 5264461.829 21706821.318 10 0 59164 20700.00000 0 13380510.431 7633878.496 20324415.496 10 0 59164 21600.00000 0 14543426.247 9740740.614 18547039.938 10 0 59164 22500.00000 0 15742930.728 11544689.972 16409207.363 10 0 59164 23400.00000 0 16919149.514 13017493.528 13952444.613 10 0 59164 24300.00000 0 18009709.275 14143971.655 11224486.864 10 0 59164 25200.00000 0 18952426.818 14922383.285 8278349.674 10 0 59164 26100.00000 0 19688009.404 15364252.685 5171296.827 10 0 59164 27000.00000 0 20162652.021 15493646.088 1963724.169 10 0 59164 27900.00000 0 20330421.507 15345929.713 -1282018.529 10 0 59164 28800.00000 0 20155326.273 14966062.564 -4502844.171 10 0 59164 29700.00000 0 19612983.648 14406497.171 -7636159.073 10 0 59164 30600.00000 0 18691813.840 13724777.978 -10621083.334 10 0 59164 31500.00000 0 17393709.666 12980939.766 -13399636.363 10 0 59164 32400.00000 0 15734153.306 12234816.822 -15917864.223 10 0 59164 33300.00000 0 13741774.717 11543377.035 -18126886.689 10 0 59164 34200.00000 0 11457369.881 10958193.776 -19983843.708 10 0 59164 35100.00000 0 8932419.544 10523162.268 -21452723.300 10 0 59164 36000.00000 0 6227169.900 10272556.543 -22505055.349 10 0 59164 36900.00000 0 3408354.790 10229508.524 -23120458.524 10 0 59164 37800.00000 0 546653.619 10404972.861 -23287030.432 10 0 59164 38700.00000 0 -2286010.137 10797220.721 -23001574.105 10 0 59164 39600.00000 0 -5019218.383 11391883.552 -22269656.915 10 0 59164 40500.00000 0 -7586742.714 12162544.905 -21105501.068 10 0 59164 41400.00000 0 -9929053.235 13071855.554 -19531707.824 10 0 59164 42300.00000 0 -11995548.676 14073125.295 -17578820.605 10 0 59164 43200.00000 0 -13746416.279 15112324.935 -15284735.076 10 0 59164 44100.00000 0 -15154045.073 16130414.706 -12693967.084 10 0 59164 45000.00000 0 -16203934.582 17065901.572 -9856792.175 10 0 59164 45900.00000 0 -16895061.981 17857518.057 -6828272.868 10 0 59164 46800.00000 0 -17239693.226 18446909.922 -3667192.142 10 0 59164 47700.00000 0 -17262646.815 18781219.344 -434913.736 10 0 59164 48600.00000 0 -17000041.900 18815454.443 2805808.683 10 0 59164 49500.00000 0 -16497584.073 18514544.744 5992050.237 10 0 59164 50400.00000 0 -15808461.609 17854995.281 9061937.436 10 0 59164 51300.00000 0 -14990941.391 16826068.810 11955850.617 10 0 59164 52200.00000 0 -14105766.419 15430445.492 14617582.677 10 0 59164 53100.00000 0 -13213464.935 13684331.249 16995431.217 10 0 59164 54000.00000 0 -12371684.879 11617009.153 19043202.893 10 0 59164 54900.00000 0 -11632666.302 9269851.565 20721110.533 10 0 59164 55800.00000 0 -11040958.286 6694833.351 21996545.749 10 0 59164 56700.00000 0 -10631476.560 3952607.172 22844712.287 10 0 59164 57600.00000 0 -10427983.510 1110219.985 23249108.112 10 0 59164 58500.00000 0 -10442054.613 -1761435.023 23201847.045 10 0 59164 59400.00000 0 -10672574.822 -4590326.023 22703813.839 10 0 59164 60300.00000 0 -11105786.260 -7306037.990 21764649.625 10 0 59164 61200.00000 0 -11715885.447 -9842462.107 20402567.805 10 0 59164 62100.00000 0 -12466145.214 -12140308.072 18644003.585 10 0 59164 63000.00000 0 -13310514.418 -14149335.385 16523103.506 10 0 59164 63900.00000 0 -14195628.301 -15830211.174 14081064.390 10 0 59164 64800.00000 0 -15063144.965 -17155917.694 11365334.110 10 0 59164 65700.00000 0 -15852309.394 -18112651.270 8428689.360 10 0 59164 66600.00000 0 -16502636.644 -18700175.690 5328208.295 10 0 59164 67500.00000 0 -16956600.503 -18931616.027 2124158.106 10 0 59164 68400.00000 0 -17162213.511 -18832702.429 -1121180.533 10 0 59164 69300.00000 0 -17075388.639 -18440496.653 -4344728.681 10 0 59164 70200.00000 0 -16661982.138 -17801656.032 -7483839.739 10 0 59164 71100.00000 0 -15899430.507 -16970309.130 -10477520.900 10 0 59164 72000.00000 0 -14777911.830 -16005633.661 -13267620.985 10 0 59164 72900.00000 0 -13300981.840 -14969239.709 -15799961.199 10 0 59164 73800.00000 0 -11485657.324 -13922469.257 -18025386.670 10 0 59164 74700.00000 0 -9361942.831 -12923726.239 -19900718.315 10 0 59164 75600.00000 0 -6971819.911 -12025949.702 -21389586.991 10 0 59164 76500.00000 0 -4367740.580 -11274336.275 -22463134.248 10 0 59164 77400.00000 0 -1610687.279 -10704407.326 -23100566.775 10 0 59164 78300.00000 0 1232120.571 -10340501.493 -23289554.519 10 0 59164 79200.00000 0 4089778.876 -10194755.300 -23026465.438 10 0 59164 80100.00000 0 6890404.804 -10266614.018 -22316432.809 10 0 59164 81000.00000 0 9563884.986 -10542892.852 -21173254.110 10 0 59164 81900.00000 0 12044552.944 -10998385.478 -19619123.442 10 0 59164 82800.00000 0 14273685.476 -11596994.236 -17684202.519 10 0 59164 83700.00000 0 16201715.289 -12293334.428 -15406038.137 10 0 59164 84600.00000 0 17790068.749 -13034745.382 -12828836.895 10 0 59164 85500.00000 0 19012553.001 -13763623.780 -10002610.737 10 0 59165 0.00000 0 19856235.390 -14419981.134 -6982209.445 10 0 59165 900.00000 0 20321778.991 -14944117.459 -3826258.033 10 0 59165 1800.00000 0 20423221.364 -15279298.946 -596020.557 10 0 59165 2700.00000 0 20187205.428 -15374325.119 2645789.013 10 0 59165 3600.00000 0 19651696.537 -15185878.124 5836224.669 10 0 59165 4500.00000 0 18864239.325 -14680553.275 8913331.376 10 0 59165 5400.00000 0 17879828.688 -13836484.952 11817349.160 10 0 59165 6300.00000 0 16758484.777 -12644498.155 14491874.603 10 0 59165 7200.00000 0 15562634.488 -11108736.221 16884956.870 10 0 59165 8100.00000 0 14354410.007 -9246737.183 18950106.941 10 0 59165 9000.00000 0 13192978.196 -7088954.282 20647200.525 10 0 59165 9900.00000 0 12132013.234 -4677739.570 21943257.191 10 0 59165 10800.00000 0 11217418.685 -2065831.825 22813080.909 10 0 59165 11700.00000 0 10485394.505 685589.347 23239749.819 10 0 59165 12600.00000 0 9960930.050 3509203.203 23214945.917 10 0 59165 13500.00000 0 9656786.099 6334106.707 22739118.409 10 0 59165 14400.00000 0 9573008.499 9088527.079 21821477.519 10 0 59165 15300.00000 0 9696993.693 11702576.031 20479818.679 10 0 59165 16200.00000 0 10004103.303 14110931.859 18740180.164 10 0 59165 17100.00000 0 10458801.836 16255338.446 16636340.340 10 0 59165 18000.00000 0 11016269.594 18086817.461 14209163.833 10 0 59165 18900.00000 0 11624422.682 19567501.979 11505808.847 10 0 59165 19800.00000 0 12226254.760 20672015.351 8578810.681 10 0 59165 20700.00000 0 12762401.340 21388338.002 5485059.194 10 0 59165 21600.00000 0 13173817.830 21718126.409 2284690.153 10 0 59165 22500.00000 0 13404457.535 21676471.486 -960087.674 10 0 59165 23400.00000 0 13403835.631 21291107.262 -4186206.277 10 0 59165 24300.00000 0 13129369.943 20601104.037 -7330968.798 10 0 59165 25200.00000 0 12548398.735 19655101.974 -10333272.000 10 0 59165 26100.00000 0 11639789.502 18509160.440 -13134796.333 10 0 59165 27000.00000 0 10395070.123 17224314.569 -15681140.087 10 0 59165 27900.00000 0 8819033.949 15863942.638 -17922875.399 10 0 59165 28800.00000 0 6929792.757 14491055.508 -19816505.560 10 0 59165 29700.00000 0 4758274.625 13165622.346 -21325305.431 10 0 59165 30600.00000 0 2347187.041 11942044.851 -22420029.182 10 0 59165 31500.00000 0 -250512.094 10866885.704 -23079472.259 10 0 59165 32400.00000 0 -2973572.616 9976945.860 -23290877.453 10 0 59165 33300.00000 0 -5754758.776 9297770.551 -23050177.859 10 0 59165 34200.00000 0 -8523409.328 8842645.752 -22362072.519 10 0 59165 35100.00000 0 -11208145.712 8612126.350 -21239933.629 10 0 59165 36000.00000 0 -13739616.807 8594115.009 -19705547.133 10 0 59165 36900.00000 0 -16053167.143 8764487.849 -17788691.593 10 0 59165 37800.00000 0 -18091318.605 9088240.214 -15526563.091 10 0 59165 38700.00000 0 -19805963.209 9521104.075 -12963056.808 10 0 59165 39600.00000 0 -21160176.273 10011568.884 -10147918.667 10 0 59165 40500.00000 0 -22129574.952 10503220.634 -7135783.003 10 0 59165 41400.00000 0 -22703165.948 10937300.415 -3985114.476 10 0 59165 42300.00000 0 -22883647.289 11255374.318 -757074.636 10 0 59165 43200.00000 0 -22687152.004 11402001.678 2485664.936 10 0 59165 44100.00000 0 -22142444.826 11327288.484 5680139.771 10 0 59165 45000.00000 0 -21289606.016 10989217.537 8764315.939 10 0 59165 45900.00000 0 -20178258.082 10355656.181 11678295.741 10 0 59165 46800.00000 0 -18865410.220 9405955.976 14365481.943 10 0 59165 47700.00000 0 -17413011.498 8132075.874 16773677.657 10 0 59165 48600.00000 0 -15885315.775 6539180.452 18856100.398 10 0 59165 49500.00000 0 -14346169.237 4645686.782 20572290.704 10 0 59165 50400.00000 0 -12856334.497 2482756.755 21888897.778 10 0 59165 51300.00000 0 -11470963.380 93254.741 22780327.166 10 0 59165 52200.00000 0 -10237324.119 -2469787.202 23229238.184 10 0 59165 53100.00000 0 -9192877.972 -5145133.738 23226881.636 10 0 59165 54000.00000 0 -8363785.419 -7865659.632 22773271.444 10 0 59165 54900.00000 0 -7763904.118 -10560916.913 21877186.806 10 0 59165 55800.00000 0 -7394320.239 -13159849.799 20556004.678 10 0 59165 56700.00000 0 -7243432.378 -15593545.237 18835365.497 10 0 59165 57600.00000 0 -7287584.136 -17797905.133 16748678.156 10 0 59165 58500.00000 0 -7492218.407 -19716129.310 14336473.402 10 0 59165 59400.00000 0 -7813504.347 -21300905.963 11645617.732 10 0 59165 60300.00000 0 -8200368.035 -22516218.371 8728402.710 10 0 59165 61200.00000 0 -8596840.627 -23338692.431 5641527.293 10 0 59165 62100.00000 0 -8944624.207 -23758428.851 2444993.018 10 0 59165 63000.00000 0 -9185766.137 -23779285.430 -799066.213 10 0 59165 63900.00000 0 -9265328.044 -23418597.994 -4027596.400 10 0 59165 64800.00000 0 -9133935.638 -22706352.361 -7177853.583 10 0 59165 65700.00000 0 -8750100.671 -21683842.850 -10188627.289 10 0 59165 66600.00000 0 -8082216.018 -20401874.591 -13001432.789 10 0 59165 67500.00000 0 -7110138.816 -18918586.034 -15561648.574 10 0 59165 68400.00000 0 -5826294.101 -17296983.909 -17819576.739 10 0 59165 69300.00000 0 -4236251.781 -15602294.761 -19731405.633 10 0 59165 70200.00000 0 -2358751.958 -13899244.535 -21260056.453 10 0 59165 71100.00000 0 -225176.799 -12249380.258 -22375897.875 10 0 59165 72000.00000 0 2121509.677 -10708545.796 -23057315.490 10 0 59165 72900.00000 0 4628310.433 -9324616.743 -23291125.796 10 0 59165 73800.00000 0 7234169.240 -8135588.367 -23072827.355 10 0 59165 74700.00000 0 9872288.147 -7168095.667 -22406684.808 10 0 59165 75600.00000 0 12472693.226 -6436426.352 -21305644.423 10 0 59165 76500.00000 0 14964942.894 -5942066.999 -19791082.894 10 0 59165 77400.00000 0 17280867.076 -5673800.476 -17892394.091 10 0 59165 78300.00000 0 19357224.138 -5608349.690 -15646421.397 10 0 59165 79200.00000 0 21138165.759 -5711539.992 -13096746.121 10 0 59165 80100.00000 0 22577407.553 -5939930.869 -10292845.264 10 0 59165 81000.00000 0 23640015.363 -6242847.855 -7289134.464 10 0 59165 81900.00000 0 24303732.968 -6564728.690 -4143914.231 10 0 59165 82800.00000 0 24559795.823 -6847684.446 -918239.777 10 0 59165 83700.00000 0 24413196.991 -7034167.094 2325263.697 10 0 59165 84600.00000 0 23882394.270 -7069630.359 5523617.185 10 0 59165 85500.00000 0 22998470.941 -6905070.867 8614711.574 99